HP3ICC-16 Weather Reports


Display with metric or nautical units.
time (UTC)temp
F
wind
direction
speed
MPH
gust
MPH
rain 1hr
in
rain 24hr
in
rain mn
in
humidity
%
barometer
mb
20260504080301 76 356 1.0 0.0 0.00 0.00 0.00 84 1009.0
20260504080201 76 356 1.0 0.0 0.00 0.00 0.00 84 1009.0
20260504070300 72 48 1.0 1.0 0.00 0.00 0.00 85 1010.0
20260504070159 72 48 1.0 1.0 0.00 0.00 0.00 85 1010.0
20260504060158 75 48 1.0 1.0 0.00 0.00 0.00 85 1011.0
20260504050257 78 48 1.0 1.0 0.00 0.00 0.00 85 1011.0
20260504050157 78 48 1.0 1.0 0.00 0.00 0.00 85 1011.0
20260504044256 79 48 2.0 2.0 0.00 0.00 0.00 85 1011.0
20260504044156 79 48 2.0 2.0 0.00 0.00 0.00 85 1011.0
20260504042256 73 50 3.0 0.0 0.00 0.00 0.00 89 1011.0
20260504042155 73 50 3.0 0.0 0.00 0.00 0.00 89 1011.0
20260504040255 74 50 3.0 0.0 0.00 0.00 0.00 89 1011.0
20260504040155 74 50 3.0 0.0 0.00 0.00 0.00 89 1011.0
20260504034255 75 50 3.0 0.0 0.00 0.00 0.00 89 1011.0
20260504034155 75 50 3.0 0.0 0.00 0.00 0.00 89 1011.0
20260504032255 76 50 3.0 0.0 0.00 0.00 0.00 89 1010.0
20260504030254 77 50 3.0 0.0 0.00 0.00 0.00 89 1011.0
20260504030154 77 50 3.0 0.0 0.00 0.00 0.00 89 1011.0
20260504024253 78 50 3.0 0.0 0.00 0.00 0.00 89 1010.0
20260504024153 78 50 3.0 0.0 0.00 0.00 0.00 89 1010.0
20260504022253 74 240 5.0 0.0 0.00 0.00 0.00 66 1009.0
20260504022153 74 240 5.0 0.0 0.00 0.00 0.00 66 1009.0
20260504020252 75 240 5.0 0.0 0.00 0.00 0.00 66 1010.0
20260504020152 75 240 5.0 0.0 0.00 0.00 0.00 66 1010.0
20260504014252 76 240 5.0 0.0 0.00 0.00 0.00 66 1010.0
20260504014151 76 240 5.0 0.0 0.00 0.00 0.00 66 1010.0
20260504012251 77 240 5.0 0.0 0.00 0.00 0.00 66 1010.0
20260504012150 77 240 5.0 0.0 0.00 0.00 0.00 66 1010.0
20260504010250 78 240 5.0 0.0 0.00 0.00 0.00 66 1010.0
20260504010150 78 240 5.0 0.0 0.00 0.00 0.00 66 1010.0
20260504004250 79 240 5.0 0.0 0.00 0.00 0.00 66 1010.0
20260504004150 79 240 5.0 0.0 0.00 0.00 0.00 66 1010.0
20260504002249 80 240 5.0 0.0 0.00 0.00 0.00 66 1009.0
20260504002149 80 240 5.0 0.0 0.00 0.00 0.00 66 1009.0
20260504000248 81 240 5.0 0.0 0.00 0.00 0.00 66 1009.0
20260504000148 81 240 5.0 0.0 0.00 0.00 0.00 66 1009.0
20260503234248 82 240 5.0 0.0 0.00 0.00 0.00 66 1009.0
20260503234148 82 240 5.0 0.0 0.00 0.00 0.00 66 1009.0
20260503232247 83 240 5.0 0.0 0.00 0.00 0.00 66 1008.0
20260503232147 83 240 5.0 0.0 0.00 0.00 0.00 66 1008.0
20260503230247 84 240 5.0 0.0 0.00 0.00 0.00 66 1008.0
20260503230147 84 240 5.0 0.0 0.00 0.00 0.00 66 1008.0
20260503224246 85 240 5.0 0.0 0.00 0.00 0.00 66 1008.0
20260503224146 85 240 5.0 0.0 0.00 0.00 0.00 66 1008.0
20260503222246 77 200 8.0 0.0 0.00 0.00 0.00 70 1008.0
20260503222145 77 200 8.0 0.0 0.00 0.00 0.00 70 1008.0
20260503220245 78 200 8.0 0.0 0.01 0.00 0.00 70 1008.0
20260503220145 78 200 8.0 0.0 0.01 0.00 0.00 70 1008.0
20260503214244 79 200 8.0 0.0 0.00 0.00 0.00 70 1008.0
20260503214144 79 200 8.0 0.0 0.00 0.00 0.00 70 1008.0
20260503212244 80 200 8.0 0.0 0.01 0.00 0.00 70 1008.0
20260503212143 80 200 8.0 0.0 0.01 0.00 0.00 70 1008.0
20260503210243 81 200 8.0 0.0 0.00 0.00 0.00 70 1008.0
20260503210143 81 200 8.0 0.0 0.00 0.00 0.00 70 1008.0
20260503204243 82 200 8.0 0.0 0.01 0.00 0.00 70 1008.0
20260503204142 82 200 8.0 0.0 0.01 0.00 0.00 70 1008.0
20260503202242 83 200 8.0 0.0 0.00 0.00 0.00 70 1009.0
20260503202142 83 200 8.0 0.0 0.00 0.00 0.00 70 1009.0
20260503200242 84 200 8.0 0.0 0.00 0.00 0.00 70 1009.0
20260503200142 84 200 8.0 0.0 0.00 0.00 0.00 70 1009.0
20260503194241 85 200 8.0 0.0 0.00 0.00 0.00 70 1009.0
20260503194141 85 200 8.0 0.0 0.00 0.00 0.00 70 1009.0
20260503192240 86 200 8.0 0.0 0.00 0.00 0.00 70 1009.0
20260503192140 86 200 8.0 0.0 0.00 0.00 0.00 70 1009.0
20260503190240 87 190 5.0 0.0 0.00 0.00 0.00 70 1010.0
20260503190140 87 190 5.0 0.0 0.00 0.00 0.00 70 1010.0
20260503184239 79 190 5.0 0.0 0.00 0.00 0.00 74 1010.0
20260503184139 79 190 5.0 0.0 0.00 0.00 0.00 74 1010.0
20260503182239 80 190 5.0 0.0 0.00 0.00 0.00 74 1011.0
20260503182139 80 190 5.0 0.0 0.00 0.00 0.00 74 1011.0
20260503180238 81 210 5.0 0.0 0.00 0.00 0.00 74 1011.0
20260503180138 81 210 5.0 0.0 0.00 0.00 0.00 74 1011.0
20260503174238 82 210 5.0 0.0 0.00 0.00 0.00 74 1011.0
20260503174138 82 210 5.0 0.0 0.00 0.00 0.00 74 1011.0
20260503172237 83 210 5.0 0.0 0.00 0.00 0.00 74 1011.0
20260503172137 83 210 5.0 0.0 0.00 0.00 0.00 74 1011.0
20260503170237 84 150 4.0 0.0 0.00 0.00 0.00 74 1012.0
20260503170136 84 150 4.0 0.0 0.00 0.00 0.00 74 1012.0
20260503160135 76 110 3.0 0.0 0.00 0.00 0.00 89 1012.0
20260503150233 79 0 1.0 0.0 0.00 0.00 0.00 89 1012.0
20260503150133 79 0 1.0 0.0 0.00 0.00 0.00 89 1012.0
20260503140231 76 0 2.0 0.0 0.00 0.00 0.00 94 1011.0
20260503140131 76 0 2.0 0.0 0.00 0.00 0.00 94 1011.0
20260503130229 73 0 1.0 0.0 0.00 0.00 0.00 10 1010.0
20260503130129 73 0 1.0 0.0 0.00 0.00 0.00 10 1010.0
20260503120128 73 30 1.0 0.0 0.00 0.00 0.00 10 1010.0
20260503110226 72 50 4.0 4.0 0.00 0.00 0.00 87 1010.0
20260503110126 72 50 4.0 4.0 0.00 0.00 0.00 87 1010.0
20260503100224 72 107 2.0 2.0 0.00 0.00 0.00 87 1010.0
20260503100124 72 107 2.0 2.0 0.00 0.00 0.00 87 1010.0
20260503090222 71 90 3.0 4.0 0.00 0.00 0.00 85 1009.0
20260503090122 71 90 3.0 4.0 0.00 0.00 0.00 85 1009.0